{"data":{"norad_id":64312,"intl_designator":"2025-123X","name":"STARLINK-34384","alt_names":[],"object_type":"PAYLOAD","status":"ACTIVE","operator":null,"country":"US","launch_date":"2025-06-08","launch_site_code":"AFWTR","launch_vehicle":null,"mission":null,"orbit_class":"UNKNOWN","rcs_meters":null,"size_class":null,"mass_kg":null,"dimensions":null,"purposes":["comms"],"wikipedia_slug":null,"has_3d_model":false,"image_url":null,"decayed_at":null,"tle_current":{"epoch":"2026-05-25T00:58:03.756000Z","epoch_age_seconds":68656,"freshness":"FRESH","line1":"1 64312U 25123X   26145.04032125  .00004652  00000+0  39736-3 0  9991","line2":"2 64312  70.0018   2.0112 0002580 271.3971  88.6892 14.98334407 53052","mean_motion":14.98334407,"eccentricity":0.000258,"inclination_deg":70.0018,"raan_deg":2.0112,"arg_perigee_deg":271.3971,"mean_anomaly_deg":88.6892,"bstar":0.00039736,"rev_number":5305,"period_min":96.106716449447,"perigee_km":570.24911644408,"apogee_km":573.83540894363,"semimajor_km":6950.1792626939005,"source":"CELESTRAK","updated_at":"2026-05-25T13:38:20.370439Z"}}}